Weather History for Beach, ND

Change the Weather History Date:

Saturday, February 2, 2013

  Actual Average (KGDV) Record (KGDV)
Temperature  
Mean Temperature 28 °F -  
Max Temperature 32 °F 28 °F 53 °F (2005)
Min Temperature 24 °F 10 °F -20 °F (2011)
Degree Days  
Heating Degree Days 37    
Moisture  
Dew Point 27 °F    
Average Humidity 90    
Maximum Humidity 100    
Minimum Humidity 75    
Precipitation  
Precipitation 0.39 in - - ()
Sea Level Pressure  
Sea Level Pressure 30.07 in    
Wind  
Wind Speed 19 mph (WNW)    
Max Wind Speed 40 mph    
Max Gust Speed 47 mph    
Visibility 9 miles    
Events Rain , Snow    
Averages and records for this station are not official NWS values.
T = Trace of Precipitation, MM = Missing Value Source: NWS Daily Summary

Daily Weather History Graph

Daily Weather History Graph

Search for Another Location

Airport:

Trip Planner

Search our weather history database for the weather conditions in past years. The results will help you decide how hot, cold, wet, or windy it might be!

Date:

Astronomy

Feb. 02, 2013 Rise Set
Actual Time 7:18 AM MST 5:01 PM MST
Civil Twilight 6:46 AM MST 5:33 PM MST
Nautical Twilight 6:10 AM MST 6:09 PM MST
Astronomical Twilight 5:34 AM MST 6:45 PM MST
Moon No Moon Rise 10:01 AM MST (2/2)
Length of Visible Light 10h 46m
Length of Day
9h 42m
Waning Gibbous, 59% of the Moon is Illuminated
Feb 2
Waning Gibbous
Feb 3
Last Quarter
Feb 10
New
Feb 17
First Quarter
Feb 25
Full

Hourly Weather History & Observations

Time (MST) Temp. Windchill Dew Point Humidity Pressure Visibility Wind Dir Wind Speed Gust Speed Precip Events Conditions
12:15 AM 32.0 °F 20.8 °F 32.0 °F 100% 30.01 in 1.5 mi West 17.3 mph - 0.14 in Snow Light Snow
12:35 AM 32.0 °F 19.8 °F 32.0 °F 100% 30.01 in 2.5 mi West 20.7 mph 25.3 mph 0.23 in Snow Light Snow
12:55 AM 32.0 °F - 32.0 °F 100% 30.01 in 2.5 mi North - - 0.38 in Snow Light Snow
1:15 AM 32.0 °F 20.1 °F 32.0 °F 100% 30.01 in 7.0 mi West 19.6 mph - N/A Snow Light Snow
1:35 AM 32.0 °F 20.5 °F 32.0 °F 100% 30.00 in 5.0 mi West 18.4 mph - 0.01 in Snow Light Snow
1:55 AM 32.0 °F 20.8 °F 32.0 °F 100% 30.01 in 10.0 mi West 17.3 mph - 0.01 in   Overcast
2:15 AM 32.0 °F 20.8 °F 32.0 °F 100% 30.02 in 10.0 mi West 17.3 mph - N/A   Overcast
2:35 AM 32.0 °F 20.1 °F 32.0 °F 100% 30.02 in 10.0 mi West 19.6 mph - N/A   Overcast
2:55 AM 32.0 °F 20.8 °F 30.2 °F 93% 30.03 in 10.0 mi West 17.3 mph - N/A   Overcast
3:15 AM 32.0 °F 20.5 °F 30.2 °F 93% 30.03 in 10.0 mi WNW 18.4 mph - N/A   Overcast
3:35 AM 32.0 °F 20.5 °F 30.2 °F 93% 30.03 in 10.0 mi West 18.4 mph 25.3 mph N/A   Overcast
3:55 AM 32.0 °F 20.5 °F 30.2 °F 93% 30.03 in 10.0 mi West 18.4 mph - N/A   Overcast
4:15 AM 32.0 °F 20.5 °F 30.2 °F 93% 30.03 in 10.0 mi West 18.4 mph - N/A   Overcast
5:15 AM 28.4 °F 15.8 °F 26.6 °F 93% 30.01 in 10.0 mi West 18.4 mph 24.2 mph N/A   Overcast
5:35 AM 28.4 °F 16.2 °F 26.6 °F 93% 30.01 in 10.0 mi West 17.3 mph 25.3 mph N/A   Overcast
5:55 AM 28.4 °F 16.6 °F 26.6 °F 93% 30.01 in 10.0 mi West 16.1 mph - N/A   Overcast
6:15 AM 28.4 °F 15.1 °F 26.6 °F 93% 29.98 in 10.0 mi West 20.7 mph 25.3 mph N/A   Overcast
6:35 AM 30.2 °F 17.8 °F 26.6 °F 86% 29.99 in 10.0 mi West 19.6 mph 25.3 mph N/A   Overcast
6:55 AM 28.4 °F 16.6 °F 26.6 °F 93% 30.01 in 10.0 mi West 16.1 mph - N/A   Overcast
7:15 AM 28.4 °F 15.4 °F 26.6 °F 93% 30.00 in 10.0 mi West 19.6 mph - N/A   Overcast
7:35 AM 30.2 °F 18.1 °F 26.6 °F 86% 30.00 in 10.0 mi West 18.4 mph - N/A   Overcast
7:55 AM 30.2 °F 17.8 °F 26.6 °F 86% 30.01 in 10.0 mi West 19.6 mph - N/A   Mostly Cloudy
8:15 AM 32.0 °F 20.8 °F 26.6 °F 80% 30.01 in 10.0 mi West 17.3 mph - N/A   Overcast
8:35 AM 32.0 °F 19.5 °F 26.6 °F 80% 30.02 in 10.0 mi West 21.9 mph 29.9 mph N/A   Scattered Clouds
8:55 AM 32.0 °F 18.1 °F 26.6 °F 80% 30.02 in 10.0 mi WNW 27.6 mph 38.0 mph N/A Rain Light Rain
9:15 AM 32.0 °F 17.9 °F 28.4 °F 87% 30.02 in 9.0 mi WNW 28.8 mph 36.8 mph N/A Rain Light Rain
9:35 AM 32.0 °F 18.1 °F 28.4 °F 87% 30.02 in 10.0 mi WNW 27.6 mph 34.5 mph N/A   Mostly Cloudy
9:55 AM 32.0 °F 17.9 °F 28.4 °F 87% 30.03 in 10.0 mi WNW 28.8 mph 38.0 mph N/A   Mostly Cloudy
10:15 AM 32.0 °F 18.6 °F 28.4 °F 87% 30.04 in 10.0 mi WNW 25.3 mph 36.8 mph N/A   Overcast
10:35 AM 32.0 °F 17.6 °F 28.4 °F 87% 30.05 in 10.0 mi WNW 29.9 mph 38.0 mph N/A   Overcast
10:55 AM 32.0 °F 18.4 °F 28.4 °F 87% 30.06 in 10.0 mi WNW 26.5 mph 35.7 mph N/A   Overcast
11:15 AM 32.0 °F 17.9 °F 28.4 °F 87% 30.07 in 10.0 mi NW 28.8 mph 35.7 mph N/A   Overcast
11:35 AM 32.0 °F 15.8 °F 28.4 °F 87% 30.08 in 3.0 mi NW 40.3 mph 47.2 mph N/A Rain Light Rain
11:55 AM 32.0 °F 17.0 °F 26.6 °F 80% 30.08 in 1.5 mi NW 33.4 mph 47.2 mph N/A Rain Light Rain
12:15 PM 32.0 °F 18.4 °F 26.6 °F 80% 30.09 in 8.0 mi NW 26.5 mph 33.4 mph N/A   Scattered Clouds
12:35 PM 32.0 °F 18.4 °F 26.6 °F 80% 30.10 in 10.0 mi NW 26.5 mph 34.5 mph N/A   Mostly Cloudy
12:55 PM 32.0 °F 17.6 °F 26.6 °F 80% 30.11 in 9.0 mi NW 29.9 mph 36.8 mph N/A   Mostly Cloudy
1:15 PM 32.0 °F 19.2 °F 26.6 °F 80% 30.11 in 10.0 mi NW 23.0 mph 29.9 mph N/A   Overcast
1:35 PM 32.0 °F 18.1 °F 26.6 °F 80% 30.12 in 10.0 mi NW 27.6 mph 34.5 mph N/A   Overcast
1:55 PM 30.2 °F 15.7 °F 24.8 °F 80% 30.13 in 10.0 mi NW 27.6 mph 33.4 mph N/A   Overcast
2:15 PM 30.2 °F 15.9 °F 24.8 °F 80% 30.13 in 10.0 mi NW 26.5 mph 32.2 mph N/A   Overcast
2:35 PM 30.2 °F 15.9 °F 24.8 °F 80% 30.14 in 10.0 mi NW 26.5 mph 35.7 mph N/A   Overcast
2:55 PM 32.0 °F 18.9 °F 24.8 °F 75% 30.15 in 10.0 mi NW 24.2 mph 31.1 mph N/A   Overcast
3:15 PM 28.4 °F 14.7 °F 24.8 °F 86% 30.15 in 10.0 mi NW 21.9 mph 27.6 mph N/A   Scattered Clouds
3:35 PM 28.4 °F 15.4 °F 24.8 °F 86% 30.15 in 10.0 mi NW 19.6 mph - N/A   Mostly Cloudy
3:55 PM 28.4 °F 15.4 °F 24.8 °F 86% 30.15 in 10.0 mi WNW 19.6 mph 24.2 mph N/A   Overcast
4:15 PM 26.6 °F 13.8 °F 24.8 °F 93% 30.15 in 10.0 mi NW 17.3 mph - N/A   Overcast
4:35 PM 28.4 °F 15.8 °F 24.8 °F 86% 30.15 in 10.0 mi NW 18.4 mph - N/A   Overcast
4:55 PM 26.6 °F 15.2 °F 24.8 °F 93% 30.15 in 10.0 mi NW 13.8 mph - N/A   Overcast
5:15 PM 26.6 °F 14.7 °F 24.8 °F 93% 30.16 in 10.0 mi WNW 15.0 mph - N/A   Overcast
5:35 PM 26.6 °F 14.7 °F 24.8 °F 93% 30.16 in 10.0 mi WNW 15.0 mph - N/A   Overcast
5:55 PM 28.4 °F 15.4 °F 24.8 °F 86% 30.15 in 10.0 mi WNW 19.6 mph - N/A   Overcast
6:15 PM 26.6 °F 13.4 °F 24.8 °F 93% 30.14 in 10.0 mi NW 18.4 mph - N/A   Overcast
6:35 PM 26.6 °F 14.3 °F 24.8 °F 93% 30.14 in 10.0 mi NW 16.1 mph - N/A   Overcast
6:55 PM 26.6 °F 15.2 °F 24.8 °F 93% 30.14 in 10.0 mi NW 13.8 mph - N/A   Overcast
7:15 PM 26.6 °F 16.8 °F 24.8 °F 93% 30.14 in 10.0 mi NW 10.4 mph - N/A   Overcast
7:35 PM 26.6 °F 16.8 °F 24.8 °F 93% 30.14 in 10.0 mi NW 10.4 mph - N/A   Overcast
7:55 PM 26.6 °F 17.5 °F 24.8 °F 93% 30.13 in 10.0 mi NNW 9.2 mph - N/A   Overcast
8:15 PM 26.6 °F 19.1 °F 24.8 °F 93% 30.13 in 10.0 mi NNW 6.9 mph - N/A   Overcast
8:35 PM 26.6 °F - 24.8 °F 93% 30.13 in 10.0 mi Calm Calm - N/A   Overcast
8:55 PM 26.6 °F - 24.8 °F 93% 30.13 in 10.0 mi Calm Calm - N/A   Overcast
9:15 PM 26.6 °F 21.2 °F 24.8 °F 93% 30.11 in 10.0 mi WNW 4.6 mph - N/A   Overcast
9:35 PM 26.6 °F 21.2 °F 23.0 °F 86% 30.10 in 10.0 mi WNW 4.6 mph - N/A   Overcast
9:55 PM 26.6 °F 22.6 °F 24.8 °F 93% 30.09 in 10.0 mi West 3.5 mph - N/A   Overcast
10:15 PM 26.6 °F 22.6 °F 23.0 °F 86% 30.09 in 10.0 mi SSW 3.5 mph - N/A   Overcast
10:35 PM 26.6 °F 18.2 °F 24.8 °F 93% 30.10 in 10.0 mi SW 8.1 mph - N/A   Overcast
10:55 PM 24.8 °F 17.9 °F 24.8 °F 100% 30.09 in 10.0 mi SSW 5.8 mph - N/A   Overcast
11:15 PM 24.8 °F 20.5 °F 23.0 °F 93% 30.07 in 10.0 mi SSE 3.5 mph - N/A   Overcast
11:35 PM 24.8 °F 19.1 °F 23.0 °F 93% 30.06 in 10.0 mi SSE 4.6 mph - N/A   Overcast
11:55 PM 24.8 °F 16.1 °F 23.0 °F 93% 30.05 in 10.0 mi South 8.1 mph - N/A   Overcast